Current weather by "City, St" or "zip code"  
 

Current Conditions: Kingsville, Naval Air Station, TX

A Few Clouds


63.0 F

Last Updated on Oct 29 2020, 7:56 pm CDT
Humidity: 48%
Wind Speed: N 8.1 mph
Barometer 30.13 in
Dewpoint: 43.0 F
Visibility: 10.00 mi
Precip: --
Heat Index: NA
Wind Chill: 63 F
Current conditions at:

Kingsville, Naval Air Station, TX (KNQI)

Lat: 27.50306 Lon: 97.81167

Local Radar Image active severe weather and emergency alerts image image weather storm and storm spotter reports image weather observation monitoring service image
Local
Radar
Active
Alerts
Storm Reports Obs
Monitoring

Sign-up For Email & Text Message Weather Alert Notification Services



Advertise Here

Observation History for Kingsville, Naval Air Station, TX


Time Wind
(mph)
Vis
(mi)
Weather Precip (in) Temperature (F) Relative
Humidity
Wind
Chill
(F)
Heat
Index
(F)
Pressure
Air Dwpt altimeter
(in)
sea level
(mb)
Rmks
7:56 pm CDT N 8.1 10.00 A Few Clouds -- 63.0 43.0 48% 63 NA 30.13 1020.0
6:56 pm CDT N 13.8 10.00 A Few Clouds -- 68.0 42.1 39% NA NA 30.11 1019.2
5:56 pm CDT N 16.1 10.00 A Few Clouds -- 73.0 43.0 34% NA NA 30.08 1018.4
4:56 pm CDT NW 19.6 G 26.5 10.00 A Few Clouds -- 75.0 43.0 32% NA NA 30.08 1018.1
3:56 pm CDT NW 16.1 10.00 A Few Clouds -- 75.0 42.1 31% NA NA 30.08 1018.1
2:56 pm CDT NW 15.0 G 29.9 10.00 Fair -- 73.0 42.1 33% NA NA 30.08 1018.2
1:56 pm CDT NW 25.3 G 32.2 10.00 Fair and Breezy -- 72.0 41.0 33% NA NA 30.10 1018.8
12:56 pm CDT NW 19.6 G 32.2 10.00 A Few Clouds -- 70.0 41.0 35% NA NA 30.12 1019.6
11:56 am CDT NW 23.0 G 29.9 10.00 A Few Clouds and Breezy -- 70.0 41.0 35% NA NA 30.14 1020.3
10:56 am CDT NW 23.0 G 34.5 10.00 A Few Clouds and Breezy -- 67.0 39.0 36% NA NA 30.14 1020.3
9:56 am CDT NW 25.3 G 35.7 10.00 A Few Clouds and Breezy -- 65.0 37.9 37% NA NA 30.13 1020.1
8:56 am CDT NW 18.4 G 35.7 10.00 Fair -- 59.0 39.0 48% 56 NA 30.10 1018.9
7:56 am CDT W 9.2 10.00 Fair -- 50.0 37.0 61% 46 NA 30.09 1018.6
6:56 am CDT W 9.2 10.00 Fair -- 47.0 37.0 69% 43 NA 30.08 1018.1
5:56 am CDT W 10.4 10.00 Fair -- 48.0 37.9 68% 43 NA 30.06 1017.6
3:56 am CDT SW 5.8 10.00 Fair -- 44.0 37.9 79% 41 NA 30.04 1016.7
2:56 am CDT SW 6.9 10.00 Fair -- 45.0 39.0 80% 41 NA 30.03 1016.6
12:56 am CDT NW 9.2 10.00 Fair -- 47.0 39.9 77% 43 NA 30.02 1016.3
11:56 pm CDT W 6.9 10.00 Fair -- 50.0 39.9 68% 47 NA 30.02 1016.2
10:56 pm CDT SW 8.1 10.00 Fair -- 51.0 39.9 66% 48 NA 30.00 1015.4
9:56 pm CDT SW 8.1 10.00 Fair -- 53.0 39.9 61% 50 NA 29.97 1014.6
8:56 pm CDT SW 4.6 10.00 Fair -- 56.0 39.9 55% 55 NA 29.96 1014.0

Regional Weather Observation


Orange Grove NALF, TX (KNOG)

Fair
NULL F

Kingsville, Naval Air Station, TX (KNQI)

A Few Clouds
63.0 F

Robstown, Nueces County Airport, TX (KRBO)

Fair
61.0 F

Falfurrias, Brooks County Airport, TX (KBKS)

Fair
61.0 F

Corpus Christi, Corpus Christi International Airport, TX (KCRP)

A Few Clouds
63.0 F

Corpus Christi, Corpus Christi Naval Air Station/Truax Field, TX (KNGP)

A Few Clouds
67.0 F